Regional Weather Roundup
Issued by NWS

Home | Current Version | Previous Version | Graphics & Text | Print | Product List | Glossary On
Versions: 1 2 3 4 5 6 7 8 9 10 11 12 13 14 15 16 17 18 19 20 21 22 23 24 25 26 27 28 29 30 31 32 33 34 35 36 37 38 39 40 41 42 43 44 45 46 47 48 49 50
000
ASUS44 KMEG 040400
RWRTN
TENNESSEE HOURLY STATE WEATHER ROUNDUP
NATIONAL WEATHER SERVICE MEMPHIS TN
1100 PM CDT THU SEP 03 2015

TNZ002-004-019-021-049-052-054-088>092-040500-
WEST TENNESSEE

CITY           SKY/WX    TMP DP  RH WIND       PRES   REMARKS
MEMPHIS INTL   PTCLDY    84  70  62 E6        29.96S
NWS MEMPHIS      N/A     76 N/A N/A MISG        N/A
JACKSON        PTCLDY    74  72  93 CALM      29.97S
DYERSBURG      CLEAR     73  72  94 CALM      29.97S
UNION CITY     CLEAR     72  72 100 CALM      29.96S
PARIS          CLEAR     70  66  88 CALM      29.99S
LEXINGTON      CLEAR     72  72 100 CALM      29.97S
$$

TNZ008-025-027-028-033-062-065-066-040500-
NORTH MIDDLE TENNESSEE

CITY           SKY/WX    TMP DP  RH WIND       PRES   REMARKS
NASHVILLE      PTCLDY    78  66  66 CALM      29.98F
CLARKSVILLE    CLEAR     72  68  87 CALM      29.98S
COOKEVILLE     CLEAR     70  70 100 CALM      30.00S
CROSSVILLE     CLEAR     69  65  86 CALM      30.06S FOG
$$

TNZ061-075-076-078-094-096-097-040500-
SOUTH MIDDLE TENNESSEE

CITY           SKY/WX    TMP DP  RH WIND       PRES   REMARKS
FAYETTEVILLE   CLEAR     72  70  94 CALM      29.99S
TULLAHOMA      CLEAR     72  68  88 CALM      30.01F
WINCHESTER     CLEAR     72  70  94 CALM      30.00F
COLUMBIA       CLEAR     73  73 100 CALM      29.97F
SHELBYVILLE    CLEAR     73  73 100 CALM      29.99F
$$

TNZ017-018-042-046-047-040500-
NORTHEAST TENNESSEE

CITY           SKY/WX    TMP DP  RH WIND       PRES   REMARKS
TRI CITIES     PTCLDY    68  65  90 CALM      30.03S
ELIZABETHTON   CLEAR     66  64  94 CALM      30.04F
$$

TNZ012-013-036-069-073-074-040500-
CENTRAL EAST TENNESSEE

CITY           SKY/WX    TMP DP  RH WIND       PRES   REMARKS
KNOXVILLE      CLEAR     75  69  81 CALM      29.98S
OAK RIDGE      CLEAR     74  67  78 CALM      30.00F
GATLINBURG     CLEAR     73  64  73 CALM      29.99S
$$

TNZ083-085-099-040500-
SOUTHEAST TENNESSEE

CITY           SKY/WX    TMP DP  RH WIND       PRES   REMARKS
CHATTANOOGA    CLEAR     77  69  76 CALM      29.98R
$$

SKY/WX REPORTED AS FAIR MEANS FEW OR NO CLOUDS BELOW
12 THOUSAND FEET.




USA.gov is the U.S. government's official web portal to all federal, state and local government web resources and services.